Simultaneous Nadir Overpasses (SNOs) Predictions

Prediction of SNOs between NOAA-15 and METOP-C Satellite Orbit:

Table of predicted SNOs for the next 14.0 days since TLE Epoch: 12/19/2020
Index Date (NOAA-15) Time (NOAA-15) Lat,Lon (NOAA-15) SZA (NOAA-15 ) Date (METOP-C) Time (METOP-C) Lat,Lon (METOP-C) SZA (METOP-C ) Distance(km) Time Diff (sec)
1 12/31/2020 04:44:59 80.98, 145.31 105.61 12/31/2020 04:43:45 80.93, 144.85 105.51 9.16 74
2 12/31/2020 05:35:32 -80.97, -47.12 74.39 12/31/2020 05:34:24 -80.96, -47.29 74.43 3.12 68
3 12/31/2020 06:26:01 80.97, 120.17 105.61 12/31/2020 06:25:05 80.96, 120.10 105.58 1.63 56
4 12/31/2020 07:16:34 -80.96, -72.25 74.39 12/31/2020 07:15:45 -80.97, -72.41 74.41 2.99 49
5 12/31/2020 08:07:03 80.96, 95.04 105.61 12/31/2020 08:06:26 80.97, 94.98 105.60 1.32 37
6 12/31/2020 08:57:37 -80.97, -97.74 74.40 12/31/2020 08:57:07 -80.96, -97.89 74.43 2.78 30
7 12/31/2020 09:48:06 80.98, 69.54 105.59 12/31/2020 09:47:48 80.97, 69.50 105.57 1.39 18
8 12/31/2020 10:38:39 -80.96,-122.87 74.40 12/31/2020 10:38:28 -80.97,-123.01 74.41 2.57 11
9 12/31/2020 11:29:08 80.97, 44.41 105.59 12/31/2020 11:29:09 80.98, 44.38 105.60 0.79 1
10 12/31/2020 12:19:42 -80.98,-148.36 74.42 12/31/2020 12:19:50 -80.97,-148.49 74.44 2.45 8
11 12/31/2020 13:10:11 80.98, 18.91 105.58 12/31/2020 13:10:31 80.97, 18.89 105.57 1.37 20
12 12/31/2020 14:00:44 -80.97,-173.49 74.42 12/31/2020 14:01:11 -80.98,-173.61 74.42 2.14 27
13 12/31/2020 14:51:13 80.98, -6.23 105.58 12/31/2020 14:51:52 80.98, -6.23 105.59 0.39 39
14 12/31/2020 15:41:47 -80.98, 161.01 74.44 12/31/2020 15:42:33 -80.97, 160.91 74.44 2.16 46
15 12/31/2020 16:32:16 80.99, -31.73 105.56 12/31/2020 16:33:14 80.97, -31.71 105.57 1.57 58
16 12/31/2020 17:22:49 -80.97, 135.88 74.44 12/31/2020 17:23:54 -80.98, 135.79 74.42 1.71 65



Historial Predications of SNOs between NOAA-15 and METOP-C
